[[{"header":{"parameterUnit":"m.s-1","parameterCategory":1,"la1":30.2991,"la2":30.254,"lo1":-89.0895,"lo2":-89.0444,"dy":0.0017,"dx":0.0017,"nx":28,"ny":28,"refTime":"2024-02-26T09:00:00:Z","depth":0,"parameterNumber":2,"parameterNumberName":"U-component_of_WINDS"},"data":[0,0,0,0,0,0,0,0,0,0,0,0,0,0,0,0,0,0,0,0,0,0,0,0,0,0,0,0,0,0,0,0,0,0,0,0,0,0,0,0,0,0,0,0,0,0,0,0,0,0,0,0,0,0,0,0,0,0,2.7161,2.7161,0,2.7193,2.7194,2.7194,2.7166,2.7165,2.7164,2.7163,2.7195,2.7197,2.7199,0,0,0,0,0,0,0,0,0,0,0,0,0,2.7072,2.7074,2.7161,2.7161,2.7162,2.7193,2.7194,2.7194,2.7166,2.7165,2.7164,2.7162,2.7194,2.7197,2.7199,0,0,0,0,0,0,0,0,0,0,0,0,0,2.7108,2.7074,2.7161,2.7152,2.7151,2.7193,2.7194,2.7194,2.7167,2.7165,2.7163,2.7162,2.7193,2.7196,2.7199,2.7252,0,0,2.7208,2.7209,0,0,0,0,0,0,0,0,2.7106,2.7111,2.7153,2.7152,2.7152,2.7174,2.7174,2.7213,2.7167,2.7161,2.7163,2.7161,2.7189,2.7192,2.7202,2.7253,2.7255,2.7208,2.721,2.7211,2.7212,0,0,0,0,0,0,0,2.7104,2.711,2.7174,2.7153,2.7153,2.7145,2.7148,2.7181,2.7184,2.7161,2.7159,2.7163,2.7189,2.7199,2.7203,2.7255,2.7208,2.7211,2.7213,2.7214,2.7348,2.7349,0,0,0,0,0,0,2.7102,2.7108,2.7173,2.7175,2.7124,2.7148,2.7152,2.7169,2.7184,2.7184,2.7165,2.7162,2.7195,2.7199,2.7204,2.7264,2.7211,2.7214,2.7216,2.7346,2.7348,2.735,0,0,0,0,0,0,2.71,2.7108,2.7171,2.7141,2.7148,2.7151,2.7171,2.717,2.7181,2.7187,2.7187,2.7176,2.7194,2.72,2.7239,2.7265,2.7215,2.7218,2.7344,2.7347,2.7349,2.7387,0,0,0,0,0,0,2.7098,2.7108,2.7129,2.7141,2.715,2.7207,2.7172,2.7172,2.7186,2.7183,2.7197,2.7197,2.7193,2.7235,2.7242,2.7268,2.722,2.7341,2.7345,2.7348,2.7384,2.7391,2.7397,0,0,0,0,0,2.7095,2.7138,2.713,2.7138,2.7176,2.7209,2.7214,2.7208,2.7188,2.7209,2.7212,2.7197,2.7261,2.724,2.7247,2.7274,2.734,2.7344,2.7348,2.7381,2.7389,2.7397,0,0,0,0,0,0,2.7129,2.714,2.7131,2.718,2.7194,2.7204,2.723,2.7218,2.7238,2.7234,2.7226,2.7229,2.7271,2.7277,2.7252,2.7325,2.7297,2.7303,2.7319,2.7328,2.7334,2.7332,2.7223,0,0,0,0,0,2.7142,2.7169,2.7177,2.7219,2.7226,2.7227,2.7241,2.7236,2.7249,2.7255,2.7261,2.7275,2.7298,2.7313,2.7335,2.7384,2.7386,2.7407,2.7413,2.7419,2.7424,2.7448,2.7457,2.7364,2.7364,2.7363,0,0,2.717,2.7179,2.7196,2.7226,2.7236,2.7262,2.7232,2.7262,2.7281,2.726,2.7297,2.7302,2.7316,2.7361,2.738,2.7367,2.745,2.7424,2.7429,2.743,2.7453,2.7462,2.747,2.7366,2.7366,2.7365,0,0,2.7233,2.7244,2.7279,2.7289,2.7305,2.7304,2.7313,2.7325,2.7327,2.7365,2.7348,2.7371,2.7411,2.7421,2.7432,2.7497,2.7483,2.7504,2.7539,2.7563,2.757,2.7576,2.7598,2.7606,2.7509,2.7509,2.7509,0,2.7265,2.7305,2.7298,2.7329,2.7341,2.7323,2.7358,2.7368,2.739,2.7398,2.7383,2.7432,2.744,2.7485,2.7501,2.7511,2.7519,2.7502,2.7569,2.7576,2.7582,2.7602,2.761,2.7511,2.7511,2.7511,2.7511,0,2.7343,2.737,2.7397,2.7417,2.7433,2.7466,2.7463,2.7479,2.7472,2.7473,2.751,2.752,2.7542,2.7552,2.7546,2.7596,2.7587,2.7571,2.7543,2.7593,2.7612,2.762,2.7515,2.7514,2.7513,2.7512,0,0,2.7429,2.7444,2.7454,2.7462,2.7477,2.7498,2.7528,2.755,2.7563,2.7579,2.7603,2.7637,2.7621,2.7633,2.7627,2.7648,2.7697,2.7629,2.7629,2.764,2.775,2.7761,2.7771,2.7688,2.7689,2.769,2.7748,0,2.7492,2.7545,2.7539,2.759,2.7614,2.7596,2.7622,2.7633,2.7635,2.7655,2.7656,2.7679,2.7658,2.7664,2.7685,2.7687,2.7718,2.7682,2.7709,2.771,2.7705,2.7781,2.7793,2.7847,2.7756,2.7757,2.7758,0,2.7572,2.7589,2.7642,2.7651,2.7661,2.7685,2.7703,2.7723,2.7734,2.7733,2.7746,2.7736,2.7765,2.7737,2.7776,2.7752,2.7762,2.7765,2.7766,2.7768,2.7736,2.7783,2.7865,2.7872,2.777,2.7769,2.7768,0,2.7627,2.7664,2.7699,2.7707,2.7719,2.7736,2.7741,2.7751,2.7764,2.7779,2.7787,2.7806,2.7816,2.7831,2.7826,2.7806,2.7865,2.7837,2.7864,2.7864,2.7877,2.7876,2.796,2.7886,2.7886,2.7886,2.7885,0,2.7697,2.773,2.7724,2.7746,2.7781,2.7774,2.7809,2.7812,2.782,2.7842,2.7827,2.7848,2.784,2.7859,2.7856,2.7887,2.7893,2.7892,2.789,2.7892,2.7892,2.7898,2.7894,2.7888,2.7887,2.7887,2.7887,0,2.7765,2.7763,2.78,2.7807,2.781,2.7836,2.7841,2.7861,2.7861,2.7888,2.7894,2.7893,2.7915,2.7911,2.7936,2.7933,2.7972,2.7967,2.7968,2.7966,2.7993,2.799,2.8083,2.8094,2.8014,2.8015,2.8015,0,2.7809,2.7833,2.7843,2.7856,2.7862,2.7884,2.7896,2.7889,2.7903,2.7916,2.7934,2.7955,2.797,2.8006,2.8007,2.8025,2.8019,2.805,2.8021,2.8022,2.8017,2.8015,2.8017,2.8056,2.8057,2.8057,2.8058,0,2.7887,2.7884,2.7902,2.792,2.7935,2.7949,2.7961,2.7972,2.7966,2.7981,2.8003,2.8015,2.8039,2.8059,2.8076,2.808,2.8068,2.8067,2.8074,2.8076,2.8075,2.8074,2.7982,2.8065,2.8064,2.8064,2.8063,2.8063,2.7943,2.7963,2.7972,2.7992,2.8,2.8012,2.803,2.8031,2.8049,2.8068,2.8063,2.8087,2.8096,2.8117,2.8123,2.8141,2.813,2.814,2.8143,2.8145,2.8147,2.8073,2.8145,2.8144,2.8144,2.8144,2.8144,0,2.8018,2.8023,2.8041,2.8058,2.8074,2.8061,2.8073,2.8086,2.8108,2.8118,2.8133,2.8157,2.8176,2.8178,2.8195,2.8209,2.8204,2.8214,2.8212,2.8213,2.8158,2.8149,2.8218,2.8218,2.8218,2.8218,2.8218,2.8218,2.8059,2.8091,2.8089,2.8125,2.8129,2.8152,2.816,2.817,2.8177,2.8204,2.822,2.8221,2.8227,2.8244,2.826,2.8261,2.8267,2.8279,2.8277,2.8225,2.8217,2.821,2.8202,2.8281,2.8281,2.833,2.8331,2.8331]},{"header":{"parameterUnit":"m.s-1","parameterCategory":1,"la1":30.2991,"la2":30.254,"lo1":-89.0895,"lo2":-89.0444,"dy":0.0017,"dx":0.0017,"nx":28,"ny":28,"refTime":"2024-02-26T09:00:00:Z","depth":0,"parameterNumber":3,"parameterNumberName":"V-component_of_WINDS"},"data":[0,0,0,0,0,0,0,0,0,0,0,0,0,0,0,0,0,0,0,0,0,0,0,0,0,0,0,0,0,0,0,0,0,0,0,0,0,0,0,0,0,0,0,0,0,0,0,0,0,0,0,0,0,0,0,0,0,0,5.3495,5.3494,0,5.3455,5.3454,5.3454,5.3398,5.3397,5.3396,5.3396,5.3355,5.3355,5.3355,0,0,0,0,0,0,0,0,0,0,0,0,0,5.3524,5.3524,5.3495,5.3494,5.3494,5.3455,5.3454,5.3454,5.3398,5.3397,5.3396,5.3395,5.3355,5.3355,5.3355,0,0,0,0,0,0,0,0,0,0,0,0,0,5.3501,5.3524,5.3495,5.3462,5.3458,5.3455,5.3454,5.3453,5.3399,5.3397,5.3396,5.3395,5.3355,5.3355,5.3355,5.3381,0,0,5.3354,5.3354,0,0,0,0,0,0,0,0,5.3502,5.3499,5.3467,5.3464,5.346,5.343,5.3449,5.3429,5.3399,5.3421,5.3396,5.3394,5.3381,5.3379,5.3374,5.3379,5.3377,5.3354,5.3353,5.3353,5.3353,0,0,0,0,0,0,0,5.3504,5.3501,5.3479,5.3467,5.3462,5.3449,5.3444,5.3445,5.341,5.3419,5.3415,5.3411,5.3379,5.3375,5.3373,5.3377,5.3354,5.3353,5.3353,5.3353,5.34,5.3401,0,0,0,0,0,0,5.351,5.3503,5.348,5.3478,5.3478,5.3449,5.3444,5.3441,5.3409,5.3403,5.3412,5.3409,5.3376,5.3373,5.3371,5.34,5.3353,5.3353,5.3353,5.3399,5.34,5.3402,0,0,0,0,0,0,5.3511,5.3509,5.3482,5.3489,5.3485,5.345,5.3448,5.3441,5.3437,5.3404,5.3398,5.3414,5.3375,5.3372,5.3379,5.3397,5.3353,5.3353,5.3397,5.3399,5.3401,5.3457,0,0,0,0,0,0,5.3512,5.3509,5.3519,5.349,5.3484,5.349,5.3449,5.3441,5.3436,5.3431,5.3404,5.3399,5.3373,5.3379,5.3378,5.3396,5.3352,5.3395,5.3398,5.34,5.3453,5.346,5.3467,0,0,0,0,0,5.3513,5.3537,5.352,5.3517,5.3496,5.3491,5.3488,5.3458,5.3438,5.3447,5.3426,5.34,5.3395,5.3381,5.3379,5.3397,5.3394,5.3397,5.34,5.345,5.3459,5.3467,0,0,0,0,0,0,5.3569,5.3532,5.3513,5.3527,5.3513,5.3482,5.3493,5.3469,5.346,5.3456,5.3419,5.3414,5.3425,5.3412,5.3396,5.342,5.339,5.3394,5.3429,5.3437,5.3444,5.3447,5.3352,0,0,0,0,0,5.3583,5.3583,5.355,5.3566,5.356,5.3528,5.3525,5.3503,5.3486,5.348,5.346,5.3445,5.344,5.3438,5.3432,5.345,5.3444,5.3462,5.3469,5.3475,5.3478,5.3487,5.3494,5.3412,5.3412,5.3412,0,0,5.3613,5.3592,5.3594,5.3577,5.3563,5.3563,5.3523,5.3525,5.3525,5.348,5.3486,5.347,5.3451,5.3464,5.3469,5.3453,5.3499,5.3479,5.3484,5.3484,5.3491,5.3499,5.3506,5.3415,5.3414,5.3414,0,0,5.3666,5.365,5.3661,5.3648,5.3627,5.3606,5.3609,5.3581,5.3569,5.3573,5.354,5.3539,5.3532,5.3519,5.3512,5.356,5.3535,5.3559,5.3595,5.3604,5.3611,5.3616,5.3633,5.364,5.3562,5.3562,5.3562,0,5.3705,5.3704,5.367,5.3674,5.3668,5.3627,5.3638,5.3627,5.3605,5.3602,5.3584,5.3574,5.3558,5.3567,5.3579,5.3575,5.3577,5.3562,5.3612,5.3617,5.3622,5.3638,5.3644,5.3565,5.3565,5.3565,5.3564,0,5.3752,5.3752,5.3764,5.3744,5.3738,5.3746,5.3714,5.3712,5.369,5.3671,5.3676,5.3655,5.3644,5.3645,5.3624,5.3651,5.3642,5.3619,5.3588,5.3634,5.3648,5.3654,5.357,5.3569,5.3568,5.3567,0,0,5.3841,5.3801,5.3806,5.3796,5.377,5.3769,5.3775,5.3763,5.3763,5.3749,5.3753,5.3747,5.3726,5.3717,5.3695,5.3702,5.3741,5.3678,5.3677,5.3691,5.377,5.3788,5.3795,5.3724,5.3725,5.3726,5.3772,0,5.3889,5.3896,5.3866,5.3881,5.3881,5.3841,5.3846,5.383,5.3812,5.3808,5.3788,5.3784,5.3756,5.3751,5.3757,5.3735,5.3757,5.3732,5.3728,5.3728,5.3734,5.3803,5.3822,5.3866,5.3777,5.3778,5.3779,0,5.3947,5.3936,5.3951,5.3923,5.3922,5.3927,5.3913,5.3911,5.3892,5.3878,5.3868,5.3842,5.3845,5.3815,5.3819,5.3803,5.3799,5.3789,5.379,5.3789,5.3756,5.3804,5.3879,5.3886,5.3787,5.3786,5.3786,0,5.401,5.3999,5.4006,5.3999,5.3967,5.3971,5.3958,5.3938,5.3933,5.3921,5.3917,5.3907,5.3901,5.3893,5.3864,5.3845,5.3872,5.384,5.386,5.3861,5.3868,5.3868,5.3944,5.3865,5.3865,5.3865,5.3865,0,5.4068,5.4079,5.4034,5.4039,5.405,5.4015,5.4026,5.4009,5.3991,5.3992,5.3957,5.3958,5.392,5.3917,5.3894,5.3901,5.3898,5.3887,5.3881,5.3891,5.3892,5.3888,5.3885,5.3867,5.3866,5.3866,5.3866,0,5.4141,5.4112,5.4117,5.4086,5.4078,5.4088,5.4061,5.4064,5.4042,5.4043,5.4042,5.4009,5.4003,5.3973,5.3961,5.3946,5.396,5.3948,5.3967,5.3963,5.3985,5.3984,5.4062,5.407,5.3986,5.3987,5.3987,0,5.418,5.4187,5.4157,5.4154,5.4142,5.4139,5.4134,5.4099,5.4095,5.4073,5.4079,5.407,5.4062,5.4055,5.403,5.402,5.4007,5.4035,5.4006,5.4015,5.4008,5.4008,5.4009,5.4042,5.4043,5.4044,5.4045,0,5.4253,5.4237,5.4231,5.4219,5.4213,5.4202,5.4188,5.4189,5.415,5.4147,5.4141,5.4134,5.4121,5.4113,5.4099,5.4085,5.4059,5.4054,5.4058,5.4068,5.4079,5.4074,5.3985,5.4053,5.4052,5.4051,5.4051,5.4051,5.431,5.4314,5.4293,5.4287,5.4273,5.4261,5.4262,5.4241,5.4235,5.4221,5.4201,5.4198,5.4178,5.4156,5.4144,5.4141,5.4126,5.4132,5.4134,5.4136,5.4141,5.4079,5.4138,5.4138,5.4137,5.4137,5.4137,0,5.4381,5.4365,5.4359,5.4341,5.4336,5.4311,5.4295,5.4292,5.4289,5.4273,5.4265,5.4257,5.4249,5.4223,5.4212,5.4215,5.4202,5.4213,5.4213,5.421,5.4155,5.4152,5.4223,5.4223,5.4223,5.4223,5.4223,5.4223,5.4417,5.4423,5.4405,5.4404,5.4388,5.4384,5.4377,5.4366,5.4353,5.4346,5.4339,5.4321,5.4301,5.4288,5.4279,5.4272,5.427,5.4285,5.4273,5.4222,5.4214,5.4206,5.4204,5.4284,5.4284,5.4329,5.4329,5.433]}]]